Terug naar catalogus

STARLINK-34390

ActiefCommunicatieVLEO
NORAD 64666·PAYLOAD·🇺🇸 United States

Gelanceerd Jun 28, 2025 vanaf Cape Canaveral Space Force Station

Loading…

Volgende Passages (komende 24 uur)

TLE

VersSource: CelesTrak SupGP

Epoch: Sep 15, 2026, 02:47 UTC

1 64666C 25139C   26258.11645833  .00053749  00000+0  15881-2 0  2582
2 64666  53.1580 322.6856 0001142  93.4356 117.2871 15.34362547    10

Volg STARLINK-34390 in realtime met AllMySat

Download on the App Store